NOAA 16 DEB

Satellite information

Favourite Embed

Satellite Type and Status

DEBRISIN ORBIT

Key statistics

Satellite NOAA 16 DEB at a glance.

Uptime

9172

Days in orbit

Revolutions

≈ 14.6

Per day

Orbit

SSO

Sun Synchronous Orbit

Inclination

98.8

Latest

Satellite identification and parameters

Extended collection of information and parameters for NOAA 16 DEB.

Object identification

Identified? True

Debris? True

Object name: NOAA 16 DEB

International designator: 2000-055AV

Object number (NORAD): 41086

Object ID (CCSDS): 41086

Country: UNITED STATES OF AMERICA (US)

Current information (Y/N): Y

RCS size: SMALL

Orbital parameters

Period: 98.529 minutes

Inclination: 98.8089 deg

SMA: 7066.458 km

Apoapsis: 709.291 km

Periapsis: 667.356 km

RAAN: 98.5095 deg

Eccentricy: 0.0029672

Argument of periapsis: 317.4177 deg

Mean anomaly: 42.4721 deg

Mean motion: 14.61504195 rev/day

Mean motion (dot): 0.00020023 rev/day2

B* drag term: 0.0040121 1/REarth

Two-line elements (TLE)

Creation date: Oct. 31, 2025, 6:16 p.m.

Reference frame: TEME

Reference center: EARTH

Epoch: Oct. 31, 2025, 4:19 p.m. UTC

TLE line 0: 0 NOAA 16 DEB

TLE line 1: 1 41086U 00055AV 25304.68003368 .00020023 00000-0 40121-2 0 9994

TLE line 2: 2 41086 98.8089 98.5095 0029672 317.4177 42.4721 14.61504195518252

Live tracking on map

Real-time ground track for satellite NOAA 16 DEB.

In-orbit conjunctions

A list of the most updated potential collisions computed for object NOAA 16 DEB.

Target Orbit TCA Probability of collision Miss distance Type
COSMOS 2251 DEB LEO 2025-03-07 05:33:27 0.0001443507 79.0 (m) DEBRIS
COSMOS 2251 DEB LEO 2024-11-12 16:19:48 0.001129816 94.0 (m) DEBRIS
CZ-6A DEB SSO 2024-11-11 17:28:16 0.0001531604 525.0 (m) DEBRIS

Associated space launch

The NOAA K, L and M POES satellites begin the fifth generation of improved environmental monitoring in support of NOAA missions. The instrument payload has significant improvements and additions/deletions. The instrument changes have effected the spacecraft subsystems and data formats.

NOAA 16 DEB was lifted into orbit during the mission ‘Titan II SLV | NOAA 16’, on board a Titan II SLV space rocket.

The launch took place on Sept. 21, 2000, 10:22 a.m. from Space Launch Complex 4W.

For more information about the launch, click the button.

Launch to space Titan II SLV | NOAA 16
Titan II SLV | NOAA 16

Agency: N/A

Status: Launch Successful

Launch date: Sept. 21, 2000, 10:22 a.m. UTC

Rocket: Titan II SLV

Launch pad: Space Launch Complex 4W

Location: Vandenberg SFB, CA, USA

...

Latest news about this satellite

There are no fresh news available about this satellite. Check back as we update our databases every day.


Newsletter sign-up

Weekly statistics, charts and insights to help you stay on top of the space industry.